PLATFORM,DATE (YYYY/MM/DD HH:MI:SS),LATITUDE (degree_north),LONGITUDE (degree_east),WSPE_MODEL LEVEL0(meter/second),WSTN_MODEL LEVEL0(newton/m2),WSTE_MODEL LEVEL0(newton/m2),WSPN_MODEL LEVEL0(meter/second),DEPH LEVEL1(meter),TEMP LEVEL1(degree_Celsius),DEPH LEVEL2(meter),NSCT LEVEL2(meter/second),EWCT LEVEL2(meter/second),CURRENT_TEST LEVEL2(none),QC,SVP_RCBN_Number,SVP_GNRL_ImmPercent,SVP_GNRL_BattVolt
61939,2012/03/21 05:30:00,43.2870,7.2200,,,,,0.5,-5,50,,,,01449999747999,3,0,0
61939,2012/03/21 06:00:50,43.1401,6.6307,,,,,0.5,13.72,50,,,,01449999747999,4,22,10.7
61939,2012/03/21 06:30:50,43.1401,6.6307,,,,,0.5,13.72,50,0,0,,01449999747009,4,22,10.7
61939,2012/03/21 07:00:25,43.1726,6.7660,,,,,0.5,14.2,50,2.03596,6.18306,,01449999747009,4,9,11
61939,2012/03/21 07:30:07,43.1971,6.8707,,,,,0.5,14.6,50,1.52877,4.76366,,01449999747009,4,9,11
61939,2012/03/21 08:00:24,43.2192,6.9769,,,,,0.5,14.92,50,1.35245,4.73702,,01449999747009,4,11,11
61939,2012/03/21 08:30:31,43.2406,7.0832,,,,,0.5,15,50,1.31686,4.76602,,01449999747009,4,11,11
61939,2012/03/21 09:01:04,43.2656,7.1903,,,,,0.5,15.24,50,1.51657,4.73198,,01449999747009,4,9,11
61939,2012/03/21 09:30:02,43.2941,7.2891,,,,,0.5,16.04,50,1.82339,4.60184,,01449999747009,3,9,11
61939,2012/03/21 10:00:15,43.3195,7.3908,,,,,0.5,15.24,50,1.55783,4.53895,,01449999747009,1,9,11
61939,2012/03/21 10:30:03,43.3524,7.4894,,,,,0.5,15.64,50,2.04604,4.45998,,01449999747009,1,9,11
61939,2012/03/21 11:00:06,43.4171,7.4305,,,,,0.5,15.96,50,3.99019,-2.63994,,01449999747009,1,12,11
61939,2012/03/21 11:30:04,43.4154,7.4246,,,,,0.5,13.56,50,-0.105134,-0.26504,,01119999717009,1,12,11
61939,2012/03/21 12:00:03,43.4139,7.4202,,,,,0.5,13.56,50,-0.092714,-0.197552,,01119999717009,4,6,11
61939,2012/03/21 12:30:08,43.4123,7.4181,,,,,0.5,13.64,50,-0.098566,-0.093975,,01119999717009,4,6,11
61939,2012/03/21 13:02:52,43.4104,7.4169,,,,,0.5,13.64,50,-0.107571,-0.049354,,01119999717009,4,31,11
61939,2012/03/21 13:30:08,43.4092,7.4156,,,,,0.5,13.64,50,-0.081561,-0.064188,,01119999717009,4,31,11
61939,2012/03/21 14:01:21,43.4067,7.4156,,,,,0.5,13.64,50,-0.148418,0,,01119999717009,4,31,11
61939,2012/03/21 14:33:00,43.4047,7.4146,,,,,0.5,13.64,50,-0.117109,-0.04254,,01119999717009,4,31,11
61939,2012/03/21 15:03:31,43.4028,7.4141,,,,,0.5,13.64,50,-0.115385,-0.022061,,01119999717009,1,31,11
61939,2012/03/21 15:30:10,43.4011,7.4136,,,,,0.5,13.64,50,-0.118218,-0.025262,,01119999717009,1,31,11
61939,2012/03/21 16:00:05,43.3994,7.4133,,,,,0.5,13.64,50,-0.10531,-0.013503,,01119999717009,1,25,11
61939,2012/03/21 16:30:05,43.3977,7.4128,,,,,0.5,13.64,50,-0.105017,-0.022443,,01119999717009,1,25,11
61939,2012/03/21 17:00:15,43.3960,7.4122,,,,,0.5,13.72,50,-0.104437,-0.026783,,01119999717009,1,30,11
61939,2012/03/21 17:30:23,43.3944,7.4122,,,,,0.5,13.72,50,-0.098403,0,,01119999717009,1,30,11
61939,2012/03/21 18:00:04,43.3928,7.4110,,,,,0.5,13.64,50,-0.099894,-0.054441,,01119999717009,1,28,11
61939,2012/03/21 18:30:47,43.3907,7.4128,,,,,0.5,13.64,50,-0.126701,0.078917,,01119999717009,1,28,11
61939,2012/03/21 19:03:52,43.3888,7.4120,,,,,0.5,13.64,50,-0.106433,-0.032566,,01119999717009,3,31,10.8
61939,2012/03/21 19:30:25,43.3872,7.4119,,,,,0.5,13.64,50,-0.111684,-0.005073,,01119999717009,3,31,10.8
61939,2012/03/21 20:00:18,43.3853,7.4116,,,,,0.5,13.64,50,-0.117831,-0.013521,,01119999717009,1,28,11
61939,2012/03/21 20:30:12,43.3836,7.4113,,,,,0.5,13.64,50,-0.105369,-0.013514,,01119999717009,1,28,11
61939,2012/03/21 21:02:34,43.3810,7.4111,,,,,0.5,13.64,50,-0.148871,-0.008323,,01119999717009,1,31,11
61939,2012/03/21 21:30:19,43.3793,7.4108,,,,,0.5,13.56,50,-0.113532,-0.014562,,01119999717009,1,31,11
61939,2012/03/21 22:00:06,43.3772,7.4105,,,,,0.5,13.56,50,-0.130671,-0.013568,,01119999717009,3,28,11
61939,2012/03/21 22:32:58,43.3751,7.4094,,,,,0.5,13.64,50,-0.118412,-0.045084,,01119999717009,3,28,11
61939,2012/03/21 23:00:05,43.3733,7.4088,,,,,0.5,13.56,50,-0.123018,-0.029807,,01119999717009,1,26,11
61939,2012/03/21 23:30:06,43.3715,7.4082,,,,,0.5,13.64,50,-0.111133,-0.026928,,01119999717009,3,26,11
61939,2012/03/22 00:01:52,43.3694,7.4079,,,,,0.5,13.64,50,-0.122513,-0.012723,,01119999717009,3,30,11
61939,2012/03/22 00:30:03,43.3676,7.4076,,,,,0.5,13.56,50,-0.118362,-0.014341,,01119999717009,3,30,11
61939,2012/03/22 01:00:14,43.3659,7.4073,,,,,0.5,13.56,50,-0.10438,-0.013391,,01119999717009,1,31,11
61939,2012/03/22 01:32:34,43.3638,7.4071,,,,,0.5,13.56,50,-0.120366,-0.008334,,01119999717009,1,31,11
61939,2012/03/22 02:00:04,43.3621,7.4069,,,,,0.5,13.56,50,-0.114564,-0.009799,,01119999717009,1,30,11
61939,2012/03/22 02:30:34,43.3603,7.4065,,,,,0.5,13.56,50,-0.109372,-0.017671,,01119999717009,1,30,11
61939,2012/03/22 03:01:25,43.3584,7.4062,,,,,0.5,13.56,50,-0.114138,-0.013103,,01119999717009,1,28,11
61939,2012/03/22 03:31:31,43.3566,7.4063,,,,,0.5,13.56,50,-0.110826,0.004477,,01119999717009,1,28,11
61939,2012/03/22 04:00:20,43.3552,7.4061,,,,,0.5,13.56,50,-0.090036,-0.009352,,01119999717009,1,30,11
61939,2012/03/22 04:30:06,43.3529,7.4056,,,,,0.5,13.56,50,-0.143196,-0.022635,,01119999717009,1,30,11
61939,2012/03/22 05:00:00,43.3523,7.3994,,,,,0.5,13.56,50,-0.035821,-0.28142,,01339999717009,1,26,10.8
61939,2012/03/22 05:30:00,43.3520,7.3999,,,,,0.5,13.56,50,-0.0182,0.026468,,01339999717009,1,26,10.8
61939,2012/03/22 06:02:38,43.3469,7.4070,,,,,0.5,13.56,50,-0.291333,0.291141,,01119999717009,1,28,10.9
61939,2012/03/22 06:30:05,43.3454,7.4070,,,,,0.5,13.56,50,-0.10127,0,,01119999717009,1,28,10.9
61939,2012/03/22 07:00:21,43.3431,7.4073,,,,,0.5,13.56,50,-0.140831,0.013359,,01119999717009,1,39,10.9
61939,2012/03/22 07:30:00,43.3411,7.4044,,,,,0.5,13.56,50,-0.126716,-0.129844,,01119999717009,1,39,10.9
61939,2012/03/22 08:00:00,43.3394,7.4034,,,,,0.5,13.56,50,-0.104518,-0.045519,,01119999717009,1,30,10.8
61939,2012/03/22 08:33:23,43.3364,7.4055,,,,,0.5,13.56,50,-0.165432,0.083579,,01119999717009,1,30,10.8
61939,2012/03/22 09:00:30,43.3345,7.4049,,,,,0.5,13.56,50,-0.129853,-0.029826,,01119999717009,1,28,11
61939,2012/03/22 09:32:58,43.3323,7.4045,,,,,0.5,13.56,50,-0.125579,-0.016608,,01119999717009,1,28,11
61939,2012/03/22 10:00:16,43.3306,7.4041,,,,,0.5,13.64,50,-0.115404,-0.019752,,01119999717009,1,30,11
61939,2012/03/22 10:33:29,43.3284,7.4034,,,,,0.5,13.64,50,-0.122744,-0.028409,,01119999717009,1,30,11
61939,2012/03/22 11:00:07,43.3270,7.4029,,,,,0.5,13.64,50,-0.097417,-0.025309,,01119999717009,1,31,10.9
61939,2012/03/22 11:30:25,43.3248,7.4019,,,,,0.5,13.64,50,-0.134559,-0.044494,,01119999717009,1,31,10.9
61939,2012/03/22 12:00:05,43.3233,7.4013,,,,,0.5,13.64,50,-0.093704,-0.027267,,01119999717009,1,31,10.9
61939,2012/03/22 12:30:26,43.3213,7.4004,,,,,0.5,13.64,50,-0.122125,-0.039981,,01119999717009,1,31,10.9
61939,2012/03/22 13:00:16,43.3198,7.3994,,,,,0.5,13.64,50,-0.09318,-0.045194,,01119999717009,1,31,10.9
61939,2012/03/22 13:30:14,43.3182,7.3984,,,,,0.5,13.64,50,-0.09895,-0.044994,,01119999717009,1,31,10.9
61939,2012/03/22 14:00:10,43.3170,7.3976,,,,,0.5,13.64,50,-0.074295,-0.036036,,01119999717009,1,33,10.9
61939,2012/03/22 14:30:00,43.3120,7.3980,,,,,0.5,13.64,50,-0.3106,0.018079,,01119999717009,1,33,10.9
61939,2012/03/22 15:01:25,43.3132,7.3968,,,,,0.5,13.64,50,0.070787,-0.051506,,01119999717009,5,31,10.9
61939,2012/03/22 15:30:20,43.3115,7.3962,,,,,0.5,13.64,50,-0.108952,-0.02798,,01119999717009,3,31,10.9
61939,2012/03/22 16:00:00,43.3148,7.3962,,,,,0.5,13.64,50,0.203648,0.001635,,01119999717009,1,28,10.8
61939,2012/03/22 16:32:58,43.3080,7.3951,,,,,0.5,13.64,50,-0.380019,-0.046631,,01119999717009,1,28,10.8
61939,2012/03/22 17:00:04,43.3065,7.3952,,,,,0.5,13.64,50,-0.102578,0.004976,,01119999717009,3,28,10.9
61939,2012/03/22 17:30:04,43.3045,7.3954,,,,,0.5,13.56,50,-0.12355,0.008991,,01119999717009,3,28,10.9
61939,2012/03/22 18:00:04,43.3026,7.3956,,,,,0.5,13.56,50,-0.117372,0.008991,,01119999717009,3,28,10.9
61939,2012/03/22 18:31:54,43.3004,7.3953,,,,,0.5,13.56,50,-0.128078,-0.01271,,01119999717009,1,28,10.9
61939,2012/03/22 19:00:14,43.2982,7.3953,,,,,0.5,13.56,50,-0.143899,0,,01119999717009,1,31,10.9
61939,2012/03/22 19:31:46,43.2957,7.3953,,,,,0.5,13.56,50,-0.146928,0,,01119999717009,1,31,10.9
61939,2012/03/22 20:00:09,43.2931,7.3951,,,,,0.5,13.56,50,-0.169763,-0.009505,,01119999717009,1,28,10.9
61939,2012/03/22 20:30:00,43.2959,7.3989,,,,,0.5,13.56,50,0.176692,0.173547,,01339999717009,1,28,10.9
61939,2012/03/22 21:03:22,43.2875,7.3933,,,,,0.5,13.56,50,-0.469329,-0.228011,,01119999717009,1,33,10.9
61939,2012/03/22 21:30:04,43.2851,7.3921,,,,,0.5,13.56,50,-0.166584,-0.060631,,01119999717009,1,33,10.9
61939,2012/03/22 22:00:16,43.2824,7.3909,,,,,0.5,13.56,50,-0.165688,-0.053607,,01119999717009,1,30,10.9
61939,2012/03/22 22:32:58,43.2795,7.3900,,,,,0.5,13.56,50,-0.164355,-0.037133,,01119999717009,1,30,10.9
61939,2012/03/22 23:00:03,43.2774,7.3885,,,,,0.5,13.56,50,-0.143698,-0.074726,,01119999717009,1,31,10.9
61939,2012/03/22 23:30:41,43.2754,7.3868,,,,,0.5,13.48,50,-0.120996,-0.074878,,01119999717009,1,31,10.9
61939,2012/03/23 00:02:38,43.2734,7.3851,,,,,0.5,13.48,50,-0.116009,-0.071794,,01119999717009,1,28,10.9
61939,2012/03/23 00:30:26,43.2720,7.3841,,,,,0.5,13.48,50,-0.093329,-0.048538,,01119999717009,1,28,10.9
61939,2012/03/23 01:00:15,43.2705,7.3827,,,,,0.5,13.48,50,-0.093232,-0.063358,,01119999717009,3,33,10.9
61939,2012/03/23 01:33:39,43.2687,7.3810,,,,,0.5,13.48,50,-0.099876,-0.068683,,01119999717009,4,33,10.9
61939,2012/03/23 02:00:47,43.2676,7.3794,,,,,0.5,13.48,50,-0.090252,-0.070196,,01119999717009,1,30,10.9
61939,2012/03/23 02:30:29,43.2663,7.3778,,,,,0.5,13.48,50,-0.081119,-0.072699,,01119999717009,1,30,10.9
61939,2012/03/23 03:00:00,43.2646,7.3731,,,,,0.5,13.48,50,-0.109359,-0.214408,,01339999717009,5,31,10.7
61939,2012/03/23 03:31:34,43.2635,7.3749,,,,,0.5,13.48,50,-0.062232,0.076526,,01119999717009,5,31,10.7
61939,2012/03/23 04:00:26,43.2620,7.3743,,,,,0.5,13.48,50,-0.0963,-0.028051,,01119999717009,1,31,10.9
61939,2012/03/23 04:33:33,43.2601,7.3733,,,,,0.5,13.48,50,-0.106326,-0.040753,,01119999717009,1,31,10.9
61939,2012/03/23 05:00:04,43.2589,7.3724,,,,,0.5,13.48,50,-0.083868,-0.045808,,01119999717009,1,31,10.9
61939,2012/03/23 05:30:02,43.2575,7.3712,,,,,0.5,13.48,50,-0.086581,-0.054047,,01119999717009,1,31,10.9
61939,2012/03/23 06:00:16,43.2563,7.3702,,,,,0.5,13.48,50,-0.073558,-0.044643,,01119999717009,1,33,10.9
61939,2012/03/23 06:33:22,43.2548,7.3694,,,,,0.5,13.48,50,-0.083984,-0.032622,,01119999717009,4,33,10.9
61939,2012/03/23 07:00:04,43.2535,7.3690,,,,,0.5,13.48,50,-0.090233,-0.020221,,01119999717009,4,28,10.9
61939,2012/03/23 07:30:43,43.2519,7.2648,,,,,0.5,13.48,50,-0.096744,-4.58885,,01449999717009,1,28,10.9
61939,2012/03/23 08:00:16,43.2501,10.6425,,,,,0.5,13.48,50,,,,01449999717999,1,33,10.9
61939,2012/03/23 08:30:08,43.2485,7.3645,,,,,0.5,13.48,50,,,,01449999717999,1,33,10.9
61939,2012/03/23 09:00:53,43.2468,7.3627,,,,,0.5,13.56,50,-0.102456,-0.079019,,01119999717009,1,31,10.9
61939,2012/03/23 09:30:29,43.2451,7.3610,,,,,0.5,13.56,50,-0.106437,-0.07753,,01119999717009,1,31,10.9
61939,2012/03/23 10:00:00,43.2492,7.3461,,,,,0.5,13.56,50,0.255745,-0.680242,,01449999717009,1,31,10.7
61939,2012/03/23 10:32:23,43.2415,7.3578,,,,,0.5,13.56,50,-0.438942,0.486484,,01119999717009,1,31,10.7
61939,2012/03/23 11:02:22,43.2399,7.3561,,,,,0.5,13.56,50,-0.098895,-0.076546,,01119999717009,1,28,10.9
61939,2012/03/23 11:30:14,43.2384,7.3544,,,,,0.5,13.64,50,-0.099756,-0.082362,,01119999717009,1,28,10.9
61939,2012/03/23 12:02:52,43.2371,7.3523,,,,,0.5,13.64,50,-0.073827,-0.086882,,01119999717009,1,25,10.9
61939,2012/03/23 12:30:03,43.2361,7.3505,,,,,0.5,13.64,50,-0.068176,-0.089403,,01119999717009,3,25,10.9
61939,2012/03/23 13:00:16,43.2352,7.3489,,,,,0.5,13.64,50,-0.055199,-0.071493,,01119999717009,5,33,10.9
61939,2012/03/23 13:30:16,43.2345,7.3477,,,,,0.5,13.64,50,-0.043242,-0.054008,,01119999717009,5,33,10.9
61939,2012/03/23 14:00:17,43.2328,7.3456,,,,,0.5,13.72,50,-0.104959,-0.094463,,01119999717009,5,33,10.9
61939,2012/03/23 14:32:32,43.2320,7.3448,,,,,0.5,13.72,50,-0.045972,-0.033494,,01119999717009,5,33,10.9
61939,2012/03/23 15:01:28,43.2312,7.3439,,,,,0.5,13.72,50,-0.051242,-0.042001,,01119999717009,1,30,10.9
61939,2012/03/23 15:30:04,43.2303,7.3430,,,,,0.5,13.64,50,-0.058319,-0.042491,,01119999717009,3,30,10.9
61939,2012/03/23 16:01:30,43.2289,7.3420,,,,,0.5,13.64,50,-0.082541,-0.042958,,01119999717009,3,28,10.9
61939,2012/03/23 16:33:00,43.2275,7.3410,,,,,0.5,13.64,50,-0.082367,-0.042868,,01119999717009,3,28,10.9
61939,2012/03/23 17:00:06,43.2265,7.3400,,,,,0.5,13.64,50,-0.068386,-0.049829,,01119999717009,3,23,10.9
61939,2012/03/23 17:30:13,43.2254,7.3387,,,,,0.5,13.64,50,-0.067689,-0.05829,,01119999717009,1,23,10.9
61939,2012/03/23 18:00:03,43.2240,7.3376,,,,,0.5,13.56,50,-0.086968,-0.049792,,01119999717009,1,26,10.9
61939,2012/03/23 18:30:33,43.2227,7.3364,,,,,0.5,13.56,50,-0.078991,-0.053132,,01119999717009,1,26,10.9
61939,2012/03/23 19:00:35,43.2210,7.3353,,,,,0.5,13.56,50,-0.104901,-0.049463,,01119999717009,5,28,10.9
61939,2012/03/23 19:30:31,43.2195,7.3343,,,,,0.5,13.56,50,-0.092869,-0.045117,,01119999717009,5,28,10.9
61939,2012/03/23 20:00:31,43.2179,7.3328,,,,,0.5,13.56,50,-0.09884,-0.067527,,01119999717009,1,28,10.9
61939,2012/03/23 20:31:49,43.2167,7.3315,,,,,0.5,13.56,50,-0.071051,-0.056094,,01119999717009,1,28,10.9
61939,2012/03/23 21:00:15,43.2151,7.3297,,,,,0.5,13.56,50,-0.104286,-0.085502,,01119999717009,1,25,10.9
61939,2012/03/23 21:30:10,43.2135,7.3277,,,,,0.5,13.56,50,-0.099115,-0.090294,,01119999717009,1,25,10.9
61939,2012/03/23 22:00:07,43.2120,7.3255,,,,,0.5,13.56,50,-0.092817,-0.099215,,01119999717009,1,25,10.9
61939,2012/03/23 22:32:04,43.2104,7.3231,,,,,0.5,13.56,50,-0.092807,-0.101462,,01119999717009,1,25,7.7
61939,2012/03/23 23:00:08,43.2093,7.3209,,,,,0.5,13.56,50,-0.072633,-0.105878,,01119999717009,1,31,10.9
61939,2012/03/23 23:30:28,43.2081,7.3183,,,,,0.5,13.56,50,-0.073315,-0.11578,,01119999717009,1,31,10.9
61939,2012/03/24 00:01:42,43.2068,7.3155,,,,,0.5,13.56,50,-0.077136,-0.121096,,01119999717009,1,25,10.9
61939,2012/03/24 00:30:12,43.2059,7.3137,,,,,0.5,13.56,50,-0.058524,-0.085315,,01119999717009,1,25,10.9
61939,2012/03/24 01:00:14,43.2049,7.3113,,,,,0.5,13.56,50,-0.061706,-0.107947,,01119999717009,1,26,10.9
61939,2012/03/24 01:30:00,43.2079,7.3186,,,,,0.5,13.56,50,0.186964,0.330459,,01119999717009,1,26,10.9
61939,2012/03/24 02:01:55,43.2036,7.3070,,,,,0.5,13.56,50,-0.249681,-0.490109,,01119999717009,3,26,10.9
61939,2012/03/24 02:30:04,43.2036,7.3054,,,,,0.5,13.56,50,0,-0.076782,,01119999717009,3,26,10.9
61939,2012/03/24 03:00:03,43.2038,7.3035,,,,,0.5,13.56,50,0.012362,-0.085603,,01119999717009,3,30,10.9
61939,2012/03/24 03:30:34,43.2037,7.3023,,,,,0.5,13.56,50,-0.006073,-0.05312,,01119999717009,3,30,10.9
61939,2012/03/24 04:00:12,43.2039,7.3010,,,,,0.5,13.48,50,0.012508,-0.059262,,01119999717009,4,23,10.9
61939,2012/03/24 04:30:15,43.2040,7.2999,,,,,0.5,13.56,50,0.006167,-0.04945,,01119999717009,4,23,10.9
61939,2012/03/24 05:00:09,43.2040,7.2991,,,,,0.5,13.56,50,0,-0.036144,,01119999717009,3,23,10.9
61939,2012/03/24 05:31:28,43.2038,7.2987,,,,,0.5,13.56,50,-0.011836,-0.017254,,01119999717009,3,23,10.9
61939,2012/03/24 06:02:16,43.2032,7.2981,,,,,0.5,13.56,50,-0.036102,-0.026316,,01119999717009,1,26,10.9
61939,2012/03/24 06:30:09,43.2037,7.2968,,,,,0.5,13.48,50,0.033232,-0.062982,,01119999717009,1,26,10.9
61939,2012/03/24 07:00:19,43.2021,7.2971,,,,,0.5,13.56,50,-0.098294,0.013434,,01119999717009,1,26,10.9
61939,2012/03/24 07:31:58,43.2014,7.2972,,,,,0.5,13.56,50,-0.040988,0.004268,,01119999717009,4,26,10.9
61939,2012/03/24 08:00:03,43.2007,7.2968,,,,,0.5,13.56,50,-0.046194,-0.019242,,01119999717009,4,26,10.9
61939,2012/03/24 08:30:03,43.1997,7.2964,,,,,0.5,13.56,50,-0.061775,-0.018013,,01119999717009,1,26,10.9
61939,2012/03/24 09:00:03,43.1987,7.2957,,,,,0.5,13.64,50,-0.061775,-0.031523,,01119999717009,1,23,10.9
61939,2012/03/24 09:30:04,43.1980,7.2949,,,,,0.5,13.64,50,-0.043218,-0.036007,,01119999717009,1,23,10.9
61939,2012/03/24 10:00:21,43.1967,7.2942,,,,,0.5,13.64,50,-0.079556,-0.031229,,01119999717009,1,23,10.9
61939,2012/03/24 10:31:01,43.1953,7.2935,,,,,0.5,13.72,50,-0.084605,-0.030839,,01119999717009,1,23,10.9
61939,2012/03/24 11:02:16,43.1943,7.2926,,,,,0.5,13.72,50,-0.059304,-0.038911,,01119999717009,1,25,10.9
61939,2012/03/24 11:30:27,43.1931,7.2916,,,,,0.5,13.72,50,-0.078908,-0.04794,,01119999717009,1,25,10.9
61939,2012/03/24 12:00:10,43.1920,7.2903,,,,,0.5,13.72,50,-0.0686,-0.059107,,01119999717009,1,25,10.9
61939,2012/03/24 12:30:39,43.1908,7.2890,,,,,0.5,13.8,50,-0.072955,-0.057622,,01119999717009,5,25,10.9
61939,2012/03/24 13:00:04,43.1896,7.2877,,,,,0.5,13.8,50,-0.0756,-0.059712,,01119999717009,5,25,10.9
61939,2012/03/24 13:30:58,43.1885,7.2859,,,,,0.5,13.88,50,-0.065973,-0.078711,,01119999717009,3,25,10.9
61939,2012/03/24 14:00:03,43.1875,7.2844,,,,,0.5,13.88,50,-0.063722,-0.069691,,01119999717009,3,23,10.9
61939,2012/03/24 14:30:07,43.1865,7.2824,,,,,0.5,13.96,50,-0.061638,-0.089883,,01119999717009,4,23,10.9
61939,2012/03/24 15:00:20,43.1858,7.2799,,,,,0.5,13.96,50,-0.042932,-0.111798,,01119999717009,4,23,10.9
61939,2012/03/24 15:30:16,43.1852,7.2779,,,,,0.5,14.04,50,-0.037148,-0.090286,,01119999717009,3,23,10.9
61939,2012/03/24 16:00:58,43.1847,7.2758,,,,,0.5,14.04,50,-0.030183,-0.092434,,01119999717009,3,23,10.9
61939,2012/03/24 16:30:05,43.1844,7.2744,,,,,0.5,14.04,50,-0.019095,-0.064974,,01119999717009,3,23,10.9
61939,2012/03/24 17:00:06,43.1844,7.2729,,,,,0.5,14.04,50,0,-0.067528,,01119999717009,4,23,10.8
61939,2012/03/24 17:30:41,43.1845,7.2714,,,,,0.5,13.96,50,0.00606,-0.066277,,01119999717009,4,23,10.8
61939,2012/03/24 18:00:03,43.1842,7.2701,,,,,0.5,13.96,50,-0.018932,-0.059819,,01119999717009,4,20,10.5
61939,2012/03/24 18:00:35,43.1842,7.2701,,,,,0.5,13.96,50,0,0,,01119999717009,1,20,10.5
61939,2012/03/24 18:30:22,43.1844,7.2686,,,,,0.5,13.96,50,0.012445,-0.068057,,01119999717009,4,20,10.5
61939,2012/03/24 19:01:51,43.1846,7.2676,,,,,0.5,13.96,50,0.011773,-0.042921,,01119999717009,4,22,10.5
61939,2012/03/24 19:30:06,43.1849,7.2668,,,,,0.5,13.96,50,0.019681,-0.038267,,01119999717009,1,22,10.5
61939,2012/03/24 20:00:20,43.1849,7.2658,,,,,0.5,13.96,50,0,-0.044696,,01119999717009,1,22,10.8
61939,2012/03/24 20:30:03,43.1855,7.2656,,,,,0.5,13.96,50,0.037418,-0.009094,,01119999717009,1,22,10.8
61939,2012/03/24 21:00:06,43.1851,7.2647,,,,,0.5,13.88,50,-0.024669,-0.040471,,01119999717009,1,20,10.8
61939,2012/03/24 21:30:15,43.1850,7.2640,,,,,0.5,13.88,50,-0.006147,-0.031373,,01119999717009,1,20,10.8
61939,2012/03/24 22:00:34,43.1849,7.2633,,,,,0.5,13.88,50,-0.006113,-0.031201,,01119999717009,1,22,10.8
61939,2012/03/24 22:30:08,43.1849,7.2628,,,,,0.5,13.88,50,0,-0.022852,,01119999717009,1,22,10.8
61939,2012/03/24 23:00:08,43.1850,7.2625,,,,,0.5,13.88,50,0.006177,-0.013513,,01119999717009,1,19,10.8
61939,2012/03/24 23:30:15,43.1849,7.2624,,,,,0.5,13.8,50,-0.006154,-0.004487,,01119999717009,1,19,10.8
61939,2012/03/25 00:00:00,43.1850,7.2620,-0.5,-0.01,0,-2.7,,13.91,50,-0.015,-0.015,313,01111111911111,,,
61939,2012/03/25 00:01:04,43.1846,7.2624,,,,,0.5,13.8,50,-0.018041,0,,01119999717009,1,19,10.8
61939,2012/03/25 00:30:21,43.1843,7.2626,,,,,0.5,13.8,50,-0.018986,0.009229,,01119999717009,1,19,10.8
61939,2012/03/25 01:00:06,43.1839,7.2625,,,,,0.5,13.8,50,-0.024918,-0.004542,,01119999717009,4,17,10.9
61939,2012/03/25 01:30:00,43.1906,7.2600,,,,,0.5,13.8,50,0.417753,-0.114814,,01449999717009,4,17,10.9
61939,2012/03/25 01:30:18,43.1823,7.2625,,,,,0.5,13.72,50,-0.031607,0.004609,,01449999717009,4,17,10.9
61939,2012/03/25 02:00:59,43.1828,7.2624,,,,,0.5,13.72,50,-0.468945,0.106414,,01119999717009,4,17,10.9
61939,2012/03/25 02:30:18,43.1823,7.2625,,,,,0.5,13.72,50,-0.031607,0.004609,,01119999717009,5,17,10.9
61939,2012/03/25 03:00:00,43.1820,7.2610,0.8,0,0,-1.7,,13.81,50,-0.041,-0.019,313,01111111911111,,,
61939,2012/03/25 03:00:22,43.1819,7.2621,,,,,0.5,13.72,50,-0.024655,-0.017978,,01449999717009,4,19,10.9
61939,2012/03/25 03:30:03,43.1813,7.2613,,,,,0.5,13.72,50,-0.03746,-0.036421,,01119999717009,4,19,10.9
61939,2012/03/25 04:00:31,43.1808,7.2606,,,,,0.5,13.72,50,-0.030414,-0.031049,,01119999717009,4,17,10.9
61939,2012/03/25 04:32:11,43.1801,7.2600,,,,,0.5,13.72,50,-0.040967,-0.025605,,01119999717009,3,17,10.9
61939,2012/03/25 05:00:13,43.1793,7.2590,,,,,0.5,13.72,50,-0.052887,-0.048207,,01119999717009,3,17,10.9
61939,2012/03/25 05:31:05,43.1786,7.2585,,,,,0.5,13.72,50,-0.042028,-0.021891,,01119999717009,1,17,10.9
61939,2012/03/25 06:00:00,43.1770,7.2570,0.5,0,0,-1.2,,13.73,50,-0.041,-0.034,313,01111111911111,,,
61939,2012/03/25 06:00:07,43.1779,7.2577,,,,,0.5,13.72,50,-0.044682,-0.037238,,01449999717009,1,22,10.9
61939,2012/03/25 06:30:03,43.1772,7.2571,,,,,0.5,13.72,50,-0.043339,-0.027089,,01119999717009,1,22,10.9
61939,2012/03/25 07:00:14,43.1767,7.2562,,,,,0.5,13.72,50,-0.0307,-0.040298,,01119999717009,1,17,10.9
61939,2012/03/25 07:30:34,43.1761,7.2557,,,,,0.5,13.72,50,-0.036658,-0.022277,,01119999717009,1,17,10.9
61939,2012/03/25 08:00:40,43.1754,7.2551,,,,,0.5,13.72,50,-0.043099,-0.02694,,01119999717009,1,15,10.9
61939,2012/03/25 08:31:04,43.1748,7.2541,,,,,0.5,13.8,50,-0.036577,-0.044458,,01119999717009,1,15,10.9
61939,2012/03/25 09:00:00,43.1740,7.2520,0.1,0,0,-1.1,,13.72,50,-0.015,-0.038,313,01111111911111,,,
61939,2012/03/25 09:00:04,43.1742,7.2534,,,,,0.5,13.88,50,-0.038343,-0.032623,,01449999717009,3,20,10.8
61939,2012/03/25 09:30:23,43.1741,7.2524,,,,,0.5,14.2,50,-0.006113,-0.044581,,01119999717009,3,20,10.8
61939,2012/03/25 10:00:07,43.1740,7.2516,,,,,0.5,14.36,50,-0.006233,-0.036364,,01119999717009,1,20,10.8
61939,2012/03/25 10:30:06,43.1740,7.2508,,,,,0.5,14.2,50,-0.012455,-0.037469,,01119999717009,1,20,10.8
61939,2012/03/25 11:00:15,43.1737,7.2502,,,,,0.5,14.2,50,-0.01844,-0.026896,,01119999717009,1,19,10.8
61939,2012/03/25 11:30:06,43.1735,7.2494,,,,,0.5,14.68,50,-0.012417,-0.036222,,01119999717009,1,19,10.8
61939,2012/03/25 12:00:00,43.1740,7.2470,0.6,0,0,-0.4,,14.46,50,0.005,-0.026,313,01111111911111,,,
61939,2012/03/25 12:00:15,43.1732,7.2485,,,,,0.5,15,50,-0.01844,-0.040345,,01449999717009,3,15,10.8
61939,2012/03/25 12:30:15,43.1733,7.2475,,,,,0.5,15.48,50,0.006177,-0.045052,,01119999717009,3,15,10.8
61939,2012/03/25 13:00:05,43.1735,7.2467,,,,,0.5,16.04,50,0.012424,-0.036243,,01119999717009,6,15,10.8
61939,2012/03/25 13:30:06,43.1740,7.2457,,,,,0.5,16.12,50,0.03087,-0.045026,,01119999717009,6,15,10.8
61939,2012/03/25 14:00:08,43.1742,7.2454,,,,,0.5,16.76,50,0.012341,-0.0135,,01119999737009,4,14,10.8
61939,2012/03/25 14:30:34,43.1740,7.2451,,,,,0.5,16.28,50,-0.012179,-0.013323,,01119999717009,4,14,10.8
61939,2012/03/25 15:00:00,43.1750,7.2450,-0.3,0,-0.01,-1.3,,15.13,50,0,-0.015,313,01111111911111,,,
61939,2012/03/25 15:00:04,43.1742,7.2448,,,,,0.5,15.8,50,0.012564,-0.013744,,01449999717009,5,15,10.9
61939,2012/03/25 15:30:13,43.1745,7.2445,,,,,0.5,15.8,50,0.01844,-0.013448,,01119999717009,5,15,10.9
61939,2012/03/25 16:00:02,43.1743,7.2445,,,,,0.5,15.48,50,-0.012431,0,,01119999717009,4,14,10.8
61939,2012/03/25 16:30:04,43.1745,7.2442,,,,,0.5,14.84,50,0.012341,-0.0135,,01119999717009,3,14,10.8
61939,2012/03/25 17:00:20,43.1740,7.2441,,,,,0.5,14.28,50,-0.030615,-0.004465,,01119999717009,1,17,10.8
61939,2012/03/25 17:30:46,43.1739,7.2439,,,,,0.5,14.2,50,-0.00609,-0.008882,,01119999717009,1,17,10.8
61939,2012/03/25 18:00:00,43.1740,7.2430,-5.8,-0.02,-0.05,-1.3,,14.95,50,-0.021,-0.011,313,01111111911111,,,
61939,2012/03/25 18:00:12,43.1737,7.2436,,,,,0.5,14.04,50,-0.012593,-0.013776,,01449999717009,1,14,10.8
61939,2012/03/25 18:30:10,43.1736,7.2433,,,,,0.5,13.96,50,-0.006184,-0.01353,,01119999717009,1,14,10.8
61939,2012/03/25 19:00:22,43.1733,7.2432,,,,,0.5,13.96,50,-0.01841,-0.004475,,01119999717009,1,14,10.8
61939,2012/03/25 19:30:20,43.1730,7.2430,,,,,0.5,13.96,50,-0.018553,-0.00902,,01119999717009,1,14,10.8
61939,2012/03/25 20:00:34,43.1725,7.2428,,,,,0.5,13.96,50,-0.030649,-0.008941,,01119999717009,1,14,10.8